Weather History for Lewisburg, WV

Change the Weather History Date:

Thursday, January 31, 2013

  Actual Average Record
Temperature  
Mean Temperature 32 °F 29 °F  
Max Temperature 41 °F 40 °F 73 °F (2002)
Min Temperature 23 °F 19 °F -2 °F (2004)
Degree Days  
Heating Degree Days 33    
Month to date heating degree days  
Cooling Degree Days 0    
Month to date cooling degree days  
Year to date cooling degree days  
Moisture  
Dew Point 18 °F    
Average Humidity 68    
Maximum Humidity 93    
Minimum Humidity 51    
Precipitation  
Precipitation 0.04 in 0.10 in 0.03 in (2013)
Month to date precipitation 3.15  
Year to date precipitation 3.15  
Snow  
Snow 0.00 in - - ()
Month to date snowfall  
Snow Depth -    
Sea Level Pressure  
Sea Level Pressure 29.72 in    
Wind  
Wind Speed 14 mph (West)    
Max Wind Speed 23 mph    
Max Gust Speed 33 mph    
Visibility 9 miles    
Events Rain , Snow    
T = Trace of Precipitation, MM = Missing Value Source: NWS Daily Summary

Daily Weather History Graph

Daily Weather History Graph

Search for Another Location

Airport:

Trip Planner

Search our weather history database for the weather conditions in past years. The results will help you decide how hot, cold, wet, or windy it might be!

Date:

Astronomy

Jan. 31, 2013 Rise Set
Actual Time 7:26 AM EST 5:44 PM EST
Civil Twilight 6:58 AM EST 6:11 PM EST
Nautical Twilight 6:27 AM EST 6:43 PM EST
Astronomical Twilight 5:56 AM EST 7:14 PM EST
Moon 10:38 PM EST (1/31) 9:31 AM EST (1/31)
Length of Visible Light 11h 13m
Length of Day
10h 17m
Waning Gibbous, 80% of the Moon is Illuminated
Jan 31
Waning Gibbous
Feb 3
Last Quarter
Feb 10
New
Feb 17
First Quarter
Feb 25
Full

Hourly Weather History & Observations

Time (EST) Temp. Windchill Dew Point Humidity Pressure Visibility Wind Dir Wind Speed Gust Speed Precip Events Conditions
12:15 AM 41.0 °F 32.8 °F 37.4 °F 87% 29.39 in 10.0 mi WSW 16.1 mph 20.7 mph 0.01 in Rain Light Rain
12:35 AM 41.0 °F 33.1 °F 35.6 °F 81% 29.40 in 10.0 mi WSW 15.0 mph 21.9 mph 0.01 in   Mostly Cloudy
12:55 AM 41.0 °F 33.5 °F 35.6 °F 81% 29.40 in 10.0 mi WSW 13.8 mph 21.9 mph 0.01 in   Overcast
1:15 AM 41.0 °F 31.1 °F 35.6 °F 81% 29.40 in 10.0 mi WSW 23.0 mph 27.6 mph 0.01 in Rain Rain
1:35 AM 37.4 °F 27.2 °F 33.8 °F 87% 29.43 in 10.0 mi West 19.6 mph 32.2 mph 0.03 in   Overcast
1:55 AM 33.8 °F 24.8 °F 32.0 °F 93% 29.45 in 10.0 mi WNW 12.7 mph 20.7 mph 0.03 in   Overcast
2:15 AM 33.8 °F 24.3 °F 30.2 °F 87% 29.47 in 10.0 mi WNW 13.8 mph 21.9 mph N/A Rain Light Rain
2:35 AM 32.0 °F 23.0 °F 30.2 °F 93% 29.47 in 10.0 mi WNW 11.5 mph 26.5 mph N/A Rain Light Rain
2:55 AM 32.0 °F 21.2 °F 28.4 °F 87% 29.49 in 10.0 mi West 16.1 mph 25.3 mph N/A   Overcast
3:15 AM 32.0 °F 23.0 °F 28.4 °F 87% 29.50 in 5.0 mi West 11.5 mph 23.0 mph N/A Snow Light Snow
3:35 AM 32.0 °F 22.1 °F 28.4 °F 87% 29.52 in 2.5 mi WNW 13.8 mph 23.0 mph N/A Snow Light Snow
3:55 AM 32.0 °F 20.1 °F 23.0 °F 69% 29.53 in 10.0 mi West 19.6 mph 32.2 mph N/A   Overcast
4:15 AM 32.0 °F 20.8 °F 21.2 °F 64% 29.54 in 10.0 mi West 17.3 mph 29.9 mph N/A   Overcast
4:35 AM 30.2 °F 19.8 °F 23.0 °F 75% 29.56 in 10.0 mi West 13.8 mph 25.3 mph N/A Snow Light Snow
4:55 AM 30.2 °F 22.6 °F 21.2 °F 69% 29.57 in 10.0 mi WNW 8.1 mph 21.9 mph N/A Snow Light Snow
5:15 AM 28.4 °F 17.5 °F 21.2 °F 74% 29.59 in 7.0 mi West 13.8 mph 21.9 mph N/A Snow Light Snow
5:35 AM 28.4 °F 18.5 °F 23.0 °F 80% 29.60 in 1.5 mi West 11.5 mph 21.9 mph N/A Snow Light Snow
5:55 AM 26.6 °F 16.2 °F 23.0 °F 86% 29.62 in 1.2 mi WSW 11.5 mph 27.6 mph N/A Snow Light Snow
6:15 AM 26.6 °F 16.2 °F 21.2 °F 80% 29.63 in 2.5 mi West 11.5 mph 25.3 mph N/A Snow Light Snow
6:35 AM 26.6 °F 15.2 °F 17.6 °F 69% 29.64 in 10.0 mi West 13.8 mph 25.3 mph N/A   Mostly Cloudy
7:15 AM 26.6 °F 14.7 °F 17.6 °F 69% 29.66 in 10.0 mi WNW 15.0 mph 23.0 mph N/A   Overcast
7:35 AM 26.6 °F 14.3 °F 17.6 °F 69% 29.68 in 5.0 mi West 16.1 mph 29.9 mph N/A Snow Light Snow
7:55 AM 26.6 °F 15.7 °F 15.8 °F 64% 29.67 in 10.0 mi WNW 12.7 mph 21.9 mph N/A   Overcast
8:15 AM 26.6 °F 19.1 °F 15.8 °F 64% 29.67 in 10.0 mi West 6.9 mph 20.7 mph N/A   Overcast
8:35 AM 26.6 °F 16.2 °F 17.6 °F 69% 29.69 in 10.0 mi WNW 11.5 mph 21.9 mph N/A   Overcast
8:55 AM 26.6 °F 15.2 °F 17.6 °F 69% 29.71 in 5.0 mi West 13.8 mph 24.2 mph N/A Snow Light Snow
9:15 AM 26.6 °F 14.7 °F 17.6 °F 69% 29.72 in 7.0 mi West 15.0 mph 24.2 mph N/A Snow Light Snow
9:35 AM 26.6 °F 14.3 °F 17.6 °F 69% 29.73 in 10.0 mi West 16.1 mph 23.0 mph N/A   Overcast
9:55 AM 26.6 °F 13.8 °F 17.6 °F 69% 29.75 in 2.5 mi West 17.3 mph 24.2 mph N/A Snow Light Snow
10:15 AM 26.6 °F 13.1 °F 15.8 °F 64% 29.75 in 10.0 mi West 19.6 mph 28.8 mph N/A   Overcast
10:35 AM 26.6 °F 14.3 °F 12.2 °F 55% 29.77 in 10.0 mi West 16.1 mph 26.5 mph N/A   Overcast
10:55 AM 26.6 °F 13.8 °F 12.2 °F 55% 29.78 in 10.0 mi West 17.3 mph 29.9 mph N/A   Overcast
11:15 AM 26.6 °F 16.2 °F 14.0 °F 59% 29.78 in 10.0 mi WNW 11.5 mph 17.3 mph N/A   Overcast
11:35 AM 26.6 °F 14.7 °F 14.0 °F 59% 29.78 in 10.0 mi WNW 15.0 mph 24.2 mph N/A   Overcast
11:55 AM 28.4 °F 16.6 °F 12.2 °F 51% 29.78 in 10.0 mi West 16.1 mph 25.3 mph N/A   Overcast
12:15 PM 26.6 °F 13.4 °F 14.0 °F 59% 29.79 in 10.0 mi West 18.4 mph 25.3 mph N/A Snow Light Snow
12:35 PM 26.6 °F 13.8 °F 14.0 °F 59% 29.78 in 10.0 mi WSW 17.3 mph 24.2 mph N/A   Overcast
12:55 PM 26.6 °F 13.8 °F 14.0 °F 59% 29.79 in 10.0 mi West 17.3 mph 28.8 mph N/A   Overcast
1:15 PM 24.8 °F 12.9 °F 12.2 °F 59% 29.78 in 7.0 mi WNW 13.8 mph 26.5 mph N/A   Overcast
1:35 PM 26.6 °F 16.8 °F 12.2 °F 55% 29.79 in 10.0 mi WNW 10.4 mph 23.0 mph N/A   Overcast
1:55 PM 26.6 °F 16.2 °F 12.2 °F 55% 29.79 in 10.0 mi West 11.5 mph 26.5 mph N/A   Overcast
2:15 PM 26.6 °F 16.2 °F 14.0 °F 59% 29.80 in 7.0 mi West 11.5 mph 18.4 mph N/A Snow Light Snow
2:35 PM 24.8 °F 11.1 °F 14.0 °F 64% 29.82 in 4.0 mi West 18.4 mph 33.4 mph N/A Snow Light Snow
2:55 PM 23.0 °F 10.1 °F 15.8 °F 74% 29.82 in 5.0 mi West 15.0 mph 23.0 mph N/A Snow Light Snow
3:15 PM 24.8 °F 10.7 °F 15.8 °F 69% 29.83 in 5.0 mi West 19.6 mph 25.3 mph N/A Snow Light Snow
3:35 PM 24.8 °F 11.9 °F 14.0 °F 64% 29.83 in 10.0 mi West 16.1 mph 24.2 mph N/A   Overcast
3:55 PM 24.8 °F 14.6 °F 14.0 °F 64% 29.83 in 10.0 mi West 10.4 mph 25.3 mph N/A   Mostly Cloudy
4:15 PM 26.6 °F 15.2 °F 15.8 °F 64% 29.84 in 10.0 mi WSW 13.8 mph 20.7 mph N/A   Mostly Cloudy
4:35 PM 26.6 °F 15.2 °F 14.0 °F 59% 29.83 in 10.0 mi West 13.8 mph 19.6 mph N/A   Overcast
4:55 PM 26.6 °F 14.3 °F 12.2 °F 55% 29.84 in 10.0 mi West 16.1 mph 25.3 mph N/A   Overcast
5:15 PM 26.6 °F 15.7 °F 12.2 °F 55% 29.85 in 10.0 mi West 12.7 mph 25.3 mph N/A   Mostly Cloudy
5:35 PM 24.8 °F 14.0 °F 12.2 °F 59% 29.86 in 10.0 mi West 11.5 mph 23.0 mph N/A   Overcast
5:55 PM 23.0 °F 11.7 °F 12.2 °F 63% 29.86 in 10.0 mi West 11.5 mph 18.4 mph N/A   Mostly Cloudy
6:15 PM 23.0 °F 11.7 °F 12.2 °F 63% 29.87 in 10.0 mi West 11.5 mph 17.3 mph N/A   Scattered Clouds
6:35 PM 23.0 °F 12.4 °F 12.2 °F 63% 29.87 in 10.0 mi West 10.4 mph - N/A   Mostly Cloudy
6:55 PM 23.0 °F 13.1 °F 12.2 °F 63% 29.87 in 10.0 mi WNW 9.2 mph 16.1 mph N/A   Overcast
7:15 PM 23.0 °F 13.1 °F 12.2 °F 63% 29.87 in 10.0 mi West 9.2 mph - N/A   Scattered Clouds
7:35 PM 23.0 °F 15.8 °F 12.2 °F 63% 29.87 in 10.0 mi West 5.8 mph - N/A   Mostly Cloudy
7:55 PM 23.0 °F 14.7 °F 12.2 °F 63% 29.87 in 10.0 mi West 6.9 mph - N/A   Overcast
8:15 PM 24.8 °F 16.9 °F 12.2 °F 59% 29.87 in 10.0 mi WSW 6.9 mph - N/A   Overcast
8:35 PM 24.8 °F 14.0 °F 12.2 °F 59% 29.87 in 10.0 mi West 11.5 mph 17.3 mph N/A   Overcast
8:55 PM 24.8 °F 14.6 °F 14.0 °F 64% 29.86 in 10.0 mi WSW 10.4 mph - N/A   Overcast
9:15 PM 24.8 °F 16.1 °F 14.0 °F 64% 29.87 in 10.0 mi WSW 8.1 mph - N/A Snow Light Snow
9:35 PM 24.8 °F 15.3 °F 14.0 °F 64% 29.87 in 10.0 mi WSW 9.2 mph - N/A   Overcast
9:55 PM 24.8 °F 15.3 °F 15.8 °F 69% 29.86 in 10.0 mi West 9.2 mph 16.1 mph N/A   Overcast
10:15 PM 26.6 °F 18.2 °F 15.8 °F 64% 29.86 in 10.0 mi WSW 8.1 mph 17.3 mph N/A   Overcast
10:35 PM 26.6 °F 16.2 °F 17.6 °F 69% 29.85 in 7.0 mi WSW 11.5 mph 18.4 mph N/A Snow Light Snow
10:55 PM 26.6 °F 17.5 °F 17.6 °F 69% 29.83 in 10.0 mi WSW 9.2 mph 16.1 mph N/A   Overcast
11:15 PM 26.6 °F 19.1 °F 17.6 °F 69% 29.82 in 10.0 mi WSW 6.9 mph - N/A   Overcast
11:35 PM 26.6 °F 18.2 °F 19.4 °F 74% 29.82 in 5.0 mi West 8.1 mph - N/A Snow Light Snow
11:55 PM 24.8 °F 17.9 °F 19.4 °F 80% 29.82 in 2.5 mi West 5.8 mph - N/A Snow Light Snow